This is the latest recevied weather packets stored in our database for station/object AG1T-20. If no packets are shown the sender has not sent any weather packets the latest 10 day(s).
| Time | Temp. | Humidity | Pressure | Rain* | Wind** | Luminosity | Snow |
|---|---|---|---|---|---|---|---|
| 1777917605 | 19.44° C | 37% | 1012.6 hPa | 0 mm | - | 960 W/m² | - |
| 1777917005 | 19.44° C | 38% | 1013 hPa | 0 mm | - | 960 W/m² | - |
| 1777916405 | 18.89° C | 38% | 1013 hPa | 0 mm | - | 955 W/m² | - |
| 1777915804 | 18.33° C | 37% | 1013 hPa | 0 mm | - | 951 W/m² | - |
| 1777915204 | 17.78° C | 38% | 1013 hPa | 0 mm | - | 944 W/m² | - |
| 1777914605 | 17.78° C | 40% | 1013 hPa | 0 mm | - | 937 W/m² | - |
| 1777914004 | 16.67° C | 41% | 1013 hPa | 0 mm | - | 930 W/m² | - |
| 1777913405 | 16.67° C | 41% | 1013.1 hPa | 0 mm | - | 920 W/m² | - |
| 1777912805 | 16.11° C | 47% | 1013.1 hPa | 0 mm | - | 907 W/m² | - |
| 1777912204 | 15.56° C | 45% | 1013.1 hPa | 0 mm | - | 896 W/m² | - |
| 1777911605 | 15.56° C | 46% | 1013.1 hPa | 0 mm | - | 879 W/m² | - |
| 1777911005 | 13.89° C | 44% | 1013.1 hPa | 0 mm | - | 867 W/m² | - |
| 1777910404 | 13.33° C | 45% | 1013.1 hPa | 0 mm | - | 851 W/m² | - |
| 1777909805 | 13.89° C | 45% | 1013.5 hPa | 0 mm | - | 832 W/m² | - |
| 1777909205 | 13.33° C | 47% | 1013.5 hPa | 0 mm | - | 810 W/m² | - |
| 1777908605 | 12.22° C | 49% | 1013.5 hPa | 0 mm | - | 786 W/m² | - |
| 1777908005 | 11.67° C | 48% | 1013.5 hPa | 0 mm | - | 763 W/m² | - |
| 1777907405 | 11.11° C | 51% | 1013.5 hPa | 0 mm | - | 737 W/m² | - |
| 1777906808 | 12.22° C | 50% | 1013.5 hPa | 0 mm | - | 717 W/m² | - |
| 1777906204 | 11.11° C | 54% | 1013.9 hPa | 0 mm | - | 680 W/m² | - |
| 1777905605 | 11.11° C | 54% | 1013.9 hPa | 0 mm | - | 649 W/m² | - |
| 1777905005 | 10° C | 57% | 1013.9 hPa | 0 mm | - | 615 W/m² | - |
| 1777904405 | 9.44° C | 55% | 1013.9 hPa | 0 mm | - | 583 W/m² | - |
| 1777903804 | 9.44° C | 61% | 1013.9 hPa | 0 mm | - | 545 W/m² | - |
| 1777903204 | 8.33° C | 63% | 1013.9 hPa | 0 mm | - | 484 W/m² | - |
* Rain latest hour (hover to see other rain measurements)
** Current wind speed in m/s (hover to see current wind gust speed)